User: anonymous   Login
Location: Bushey
(51.6333°N, 0.3667°W)
Time: 13:20:18
(UTC+00:00)
Language:

Cosmos 1937 Rocket - Orbit

View from above orbital plane
View from above orbital plane
View from above satellite
View from above satellite

Ground track
Ground track

The orbit data is extracted from the following two-line orbital elements,

1 19039U 88029B   21138.10399728  .00000058  00000-0  27501-4 0  9995
2 19039  74.0472 184.1180 0023783 359.1900   0.9211 14.38509526736597
Epoch (UTC): 18 May 2021 02:29:45
Eccentricity: 0.0023783
inclination: 74.0472°
perigee height: 746 km
apogee height: 780 km
right ascension of ascending node: 184.1180°
argument of perigee: 359.1900°
revolutions per day: 14.38509526
mean anomaly at epoch: 0.9211°
orbit number at epoch: 73659

The dashed part of the orbit path shows where the satellite is in the earth's shadow,  

DLR